This demonstration page uses our WeatherBlox Daily Observations layout. Learn more.

Left ArrowRight Arrow

Hourly Observations for December 25, 2021

Temp ( °F °C ) Dew Point ( °F °C ) Humidity (%) Winds ( mph kmh ) Pressure ( in mb ) Visibility ( mi km ) Precip ( " mm )
12:56 am 00:56 Clear 30 -1.1 24 -4.4 79 79 N 10 17 29.65 1004 10 16 0.00 0.00
1:56 am 01:56 Clear 29 -1.7 25 -3.9 85 85 N 6 9 29.65 1004 10 16 0.00 0.00
2:56 am 02:56 Clear 27 -2.8 23 -5 85 85 N 5 7 29.68 1005 10 16 0.00 0.00
3:56 am 03:56 Clear 25 -3.9 22 -5.6 88 88 NNW 6 9 29.71 1006 10 16 0.00 0.00
4:56 am 04:56 Clear 24 -4.4 21 -6.1 88 88 NNW 3 6 29.73 1007 10 16 0.00 0.00
5:56 am 05:56 Clear 22 -5.6 20 -6.7 92 92 NW 6 9 29.76 1008 10 16 0.00 0.00
6:56 am 06:56 Clear 21 -6.1 18 -7.8 88 88 NW 8 13 29.80 1009 10 16 0.00 0.00
7:56 am 07:56 Clear 22 -5.6 19 -7.2 89 89 SSW 6 9 29.80 1009 10 16 0.00 0.00
8:56 am 08:56 Sunny 27 -2.8 24 -4.4 89 89 SSW 3 6 29.81 1009 10 16 0.00 0.00
9:56 am 09:56 Sunny 33 0.6 26 -3.3 75 75 SSW 10 17 29.83 1010 10 16 0.00 0.00
10:56 am 10:56 Sunny 38 3.3 27 -2.8 65 65 SSW 10 17 29.85 1011 10 16 0.00 0.00
11:56 am 11:56 Sunny 44 6.7 30 -1.1 58 58 SW 16 26 29.83 1010 10 16 0.00 0.00
12:56 pm 12:56 Sunny 48 8.9 30 -1.1 50 50 WSW 15 24 29.82 1010 10 16 0.00 0.00
1:56 pm 13:56 Sunny 52 11.1 28 -2.2 40 40 W 15 24 29.81 1010 10 16 0.00 0.00
2:56 pm 14:56 Sunny 55 12.8 26 -3.3 33 33 W 10 17 29.83 1010 10 16 0.00 0.00
3:56 pm 15:56 Sunny 56 13.3 26 -3.3 32 32 W 7 11 29.85 1011 10 16 0.00 0.00
4:56 pm 16:56 Sunny 50 10 25 -3.9 38 38 SW 6 9 29.88 1012 10 16 0.00 0.00
5:56 pm 17:56 Clear 46 7.8 24 -4.4 42 42 SSW 7 11 29.90 1012 10 16 0.00 0.00
6:56 pm 18:56 Clear 40 4.4 22 -5.6 49 49 SSW 9 15 29.92 1013 10 16 0.00 0.00
7:56 pm 19:56 Clear 39 3.9 23 -5 53 53 SW 9 15 29.93 1014 10 16 0.00 0.00
8:56 pm 20:56 Clear 37 2.8 19 -7.2 48 48 SSW 5 7 29.94 1014 10 16 0.00 0.00
9:56 pm 21:56 Clear 40 4.4 20 -6.7 45 45 WSW 8 13 29.93 1014 10 16 0.00 0.00
10:56 pm 22:56 Clear 36 2.2 20 -6.7 52 52 WSW 7 11 29.93 1013 10 16 0.00 0.00
11:56 pm 23:56 Clear 29 -1.7 19 -7.2 66 66 Calm 29.92 1013 10 16 0.00 0.00

Powered by AerisWeather